QIANFAN-63

Satellite information

Favourite Embed

Satellite Type and Status

PAYLOADIN ORBIT

Key statistics

Satellite QIANFAN-63 at a glance.

Uptime

229

Days in orbit

Revolutions

≈ 13.5

Per day

Orbit

LEO

Low Earth Orbit

Inclination

89.0

Latest

Satellite identification and parameters

Extended collection of information and parameters for QIANFAN-63.

Object identification

Identified? True

Debris? False

Object name: QIANFAN-63

International designator: 2025-016J

Object number (NORAD): 62793

Object ID (CCSDS): 62793

Country: PEOPLES REPUBLIC OF CHINA (PRC)

Current information (Y/N): Y

RCS size: LARGE

Orbital parameters

Period: 106.591 minutes

Inclination: 88.9787 deg

SMA: 7446.861 km

Apoapsis: 1079.193 km

Periapsis: 1058.26 km

RAAN: 112.9558 deg

Eccentricy: 0.00140553

Argument of periapsis: 265.9349 deg

Mean anomaly: 94.0196 deg

Mean motion: 13.50961154 rev/day

Mean motion (dot): 0.0000011 rev/day2

B* drag term: 0.00015268667 1/REarth

Two-line elements (TLE)

Creation date: Sept. 8, 2025, 3:16 a.m.

Reference frame: TEME

Reference center: EARTH

Epoch: Sept. 7, 2025, 9:58 p.m. UTC

TLE line 0: 0 QIANFAN-63

TLE line 1: 1 62793U 25016J 25250.91555431 .00000110 00000-0 15269-3 0 9996

TLE line 2: 2 62793 88.9787 112.9558 0014055 265.9349 94.0196 13.50961154 34337

Live tracking on map

Real-time ground track for satellite QIANFAN-63.

In-orbit conjunctions

There are no conjunctions computed for QIANFAN-63, at the moment. Check back to stay up to date, as we update our databases every day.

Go to all conjunctions

Associated space launch

18 Low Earth Orbit communication satellites with Ku, Q and V band payloads for the G60 constellation operated by Shanghai Spacecom Satellite Technology (SSST) with funding backed by the Shanghai local government. Initial constellation will consist of 1296 satellites by 2027 with long term plans to expand it to 12000 satellites.

QIANFAN-63 was lifted into orbit during the mission ‘Long March 6A | G60 Polar Group 06’, on board a Long March 6A space rocket.

The launch took place on Jan. 23, 2025, 5:15 a.m. from Launch Complex 9A.

For more information about the launch, click the button.

Launch to space Long March 6A | G60 Polar Group 06
Long March 6A | G60 Polar Group 06

Agency: N/A

Status: Launch Successful

Launch date: Jan. 23, 2025, 5:15 a.m. UTC

Rocket: Long March 6A

Launch pad: Launch Complex 9A

Location: Taiyuan Satellite Launch Center, People's Republic of China

...

Latest news about this satellite

News about space launch
China launches fourth batch of Thousand Sails megaconstellation satellites

HELSINKI — China launched the fourth batch of 18 satellites for the Thousand Sails megaconstellation early Thursday using a Long March 6A rocket. The Long March 6A lifted off at […] The post China launches fourth batch of Thousand Sails megaconstellation...


Newsletter sign-up

Weekly statistics, charts and insights to help you stay on top of the space industry.